Moline, IL
on Monday, July 1, 2013

Monday
Previous Day Next Day
Daily Summary
 ActualAverageRecord
Temperature
Mean Temperature °F 75°F  
Max Temperature 80°F 86°F 103°F (1956)
Min Temperature 57°F 65°F 48°F (1988)
Degree Days
Heating Degree Days 0 0  
Month to date heating degree days 0 0  
Since 1 June heating degree days 27 19  
Since 1 July heating degree days 0 0  
Cooling Degree Days 4 10  
Month to date cooling degree days 4 10  
Year to date cooling degree days 297 300  
Since 1 June cooling degree days 207 224  
Growing Degree Days18 (Base °F )  
Moisture
Dew Point 50°F   
Average Humidity 57    
Maximum Humidity 80    
Minimum Humidity 33    
Precipitation
Precipitation 0.00 in 0.15 in 0.96 in (1967)
Month to date precipitation 0.00 0.15  
Year to date precipitation 29.29 18.50  
Since 1 June precipitation 6.14 4.64  
Snow
Snow 0.00 in 0.00 in in ()
Month to date snowfall 0.0 0.0  
Since 1 June snowfall 0.0 0.0  
Since 1 July snowfall 0.0 0.0  
Snow Depth 0.00 in   
Wind
Wind Speed 8 mph   
Max Wind Speed 21 mph   
Max Gust Speed 25 mph   
Visibility 10 miles   
Events     

Key: T is trace of precipitation, MM is missing value
Source: NWS Daily Summary
Time(CDT)TemperatureDew PointHumidity Pressure Visibility Wind DirectionWind SpeedGust SpeedPrecipitationEvents Conditions
12:52 AM 66.0°F 48.9°F 54% 30.02 in 10.0 miles NE 3.5 mph - N/A   Clear
1:52 AM 57.9°F 52.0°F 81% 30.02 in 10.0 miles Calm Calm - N/A   Clear
2:52 AM 62.1°F 52.0°F 70% 30.01 in 10.0 miles Calm Calm - N/A   Clear
3:52 AM 63.0°F 48.9°F 60% 30.02 in 10.0 miles Variable 3.5 mph - N/A   Clear
4:52 AM 62.1°F 48.9°F 62% 30.03 in 10.0 miles North 4.6 mph - N/A   Clear
5:52 AM 62.1°F 48.9°F 62% 30.04 in 10.0 miles NE 4.6 mph - N/A   Clear
6:52 AM 63.0°F 48.9°F 60% 30.05 in 10.0 miles Variable 4.6 mph - N/A   Clear
7:52 AM 66.0°F 51.1°F 59% 30.06 in 10.0 miles Variable 4.6 mph - N/A   Clear
8:52 AM 69.1°F 52.0°F 54% 30.07 in 10.0 miles NNE 10.4 mph - N/A   Clear
9:52 AM 72.0°F 51.1°F 48% 30.08 in 10.0 miles NNE 9.2 mph - N/A   Clear
10:52 AM 73.9°F 52.0°F 46% 30.07 in 10.0 miles North 10.4 mph - N/A   Clear
11:52 AM 75.9°F 53.1°F 45% 30.06 in 10.0 miles NNE 11.5 mph - N/A   Clear
12:52 PM 77.0°F 54.0°F 45% 30.06 in 10.0 miles NNE 9.2 mph 16.1 mph N/A   Clear
1:52 PM 78.1°F 50.0°F 37% 30.05 in 10.0 miles NNE 13.8 mph 23.0 mph N/A   Clear
2:52 PM 80.1°F 52.0°F 38% 30.05 in 10.0 miles NNE 15.0 mph 18.4 mph N/A   Clear
3:52 PM 79.0°F 51.1°F 38% 30.05 in 10.0 miles NNE 13.8 mph 20.7 mph N/A   Clear
4:52 PM 80.1°F 51.1°F 36% 30.05 in 10.0 miles NNE 11.5 mph 20.7 mph N/A   Clear
5:52 PM 78.1°F 48.0°F 35% 30.05 in 10.0 miles NNE 16.1 mph 21.9 mph N/A   Clear
6:52 PM 77.0°F 46.9°F 34% 30.05 in 10.0 miles ENE 17.3 mph 20.7 mph N/A   Clear
7:52 PM 75.0°F 46.9°F 37% 30.05 in 10.0 miles NE 11.5 mph 18.4 mph N/A   Clear
8:52 PM 73.0°F 46.9°F 39% 30.06 in 10.0 miles NE 6.9 mph - N/A   Clear
9:52 PM 70.0°F 48.9°F 47% 30.08 in 10.0 miles NE 4.6 mph - N/A   Clear
10:52 PM 63.0°F 54.0°F 72% 30.08 in 10.0 miles Calm Calm - N/A   Clear
11:52 PM 61.0°F 54.0°F 78% 30.08 in 10.0 miles Calm Calm - N/A   Clear
Astronomy
Sunrise:05:32 AM (CDT) Moon Rise:01:04 AM (CDT)7/1
Sunset:08:39 PM (CDT) Moon Set:02:52 PM (CDT)7/1
Moon Phase
Jul. 01 Jul. 08 Jul. 16 Jul. 22 Jul. 29

Copyright © 2015 The Weather Underground, Inc.















  Today is Monday, Nov. 17, the 321st day of 2014. There are 44 days left in the year.

1864 -- 150 years ago: The ferry landing has been moved a little downstream because of the increase of sandbars above and opposite the old landing place.
1889 -- 125 years ago: Ben Eden purchased the Union Meat Market at 207 20th St.
1914 -- 100 years ago: Washington dispatches declared the bad effects of war upon trade had ended, a restoration of credit balance with Europe relieving the situation.
1939 -- 75 years ago: The maintenance foreman on the Iowa Illinois Memorial Bridge between Moline and Bettendorf lost his life when he slipped and fell into the Mississippi River.
1964 -- 50 years ago: The Black Hawk College Board of Education last night formally expressed appreciation for a proposed gift of 44 acres of land for a building site but could not take any other action until after a Nov. 24 stockholders meeting of the donor company.
1989 -- 25 years ago: A Rock Island County committee has approved a jail inmate phone service that could bring the county an additional $30,000 to $40,000 a year.